Tracking 28790 objects as of 19-Apr-2024
HD Live streaming from Space Station
objects crossing your sky now

STARLINK-1833

Track STARLINK-1833 now!
10-day predictions
STARLINK-1833 is classified as:


NORAD ID: 46759
Int'l Code: 2020-074W
Perigee: 553.3 km
Apogee: 555.4 km
Inclination: 53.1 °
Period: 95.6 minutes
Semi major axis: 6925 km
RCS: Unknown
Launch date: October 24, 2020
Source: United States (US)
Launch site: AIR FORCE EASTERN TEST RANGE (AFETR)
Your satellite tracking list
Your tracking list is empty




NASA's NSSDC Master Catalog

Two Line Element Set (TLE):
1 46759U 20074W   24109.51374974  .00007501  00000-0  52195-3 0  9998
2 46759  53.0542 194.9352 0001563 100.4132 259.7033 15.06398232192438
Source of the keplerian elements: AFSPC